Regional Weather Roundup
Issued by NWS Little Rock, AR

Home | Current Version | Previous Version | Text Only | Print | Product List | Glossary Off
Versions: 1 2 3 4 5 6 7 8 9 10 11 12 13 14 15 16 17 18 19 20 21 22 23 24 25 26 27 28 29 30 31 32 33 34 35 36 37 38 39 40 41 42 43 44 45 46 47 48 49 50

527
ASUS44 KLZK 060205
RWRLZK

WEATHER ROUNDUP FOR ARKANSAS
NATIONAL WEATHER SERVICE LITTLE ROCK AR
800 PM CST MON DEC 05 2016

NOTE: "FAIR" INDICATES FEW OR NO CLOUDS BELOW 12,000 FEET WITH NO
SIGNIFICANT WEATHER AND/OR OBSTRUCTIONS TO VISIBILITY.

ARZ001-003-010-029-060300-
NORTHWEST ARKANSAS

CITY           SKY/WX    TMP DP  RH WIND       PRES   REMARKS
FAYETTEVILLE   CLOUDY    45  41  86 CALM      29.72F
FORT SMITH     CLOUDY    46  42  86 NE7       29.74R
HARRISON       CLOUDY    41  39  93 E8        29.75S
BENTONVILLE    MOCLDY    46  36  66 CALM      29.72F
ROGERS         CLOUDY    45  40  82 NE3       29.72F
SILOAM SPGS    CLOUDY    43  36  75 CALM      29.73R
HIGHFILL       CLOUDY    44  39  82 W5        29.72R
SPRINGDALE     CLOUDY    48  39  71 SE3       29.72F
$$

ARZ004-005-016-060300-
NORTH CENTRAL ARKANSAS

CITY           SKY/WX    TMP DP  RH WIND       PRES   REMARKS
BATESVILLE     CLOUDY    41  39  93 NE3       29.81F
FLIPPIN        CLOUDY    41  34  75 E6        29.75F
MTN HOME       CLOUDY    40  37  89 SE7       29.76F
$$

ARZ040-041-060300-
WEST CENTRAL ARKANSAS

CITY           SKY/WX    TMP DP  RH WIND       PRES   REMARKS
MENA           CLOUDY    46  45  93 CALM      29.74S
MOUNT IDA      CLOUDY    45  43  93 CALM      29.72R FOG
$$

ARZ009-017-025-026-028-060300-
NORTHEAST ARKANSAS

CITY           SKY/WX    TMP DP  RH WIND       PRES   REMARKS
CORNING        CLOUDY    41  39  93 NE10      29.82F
JONESBORO      CLOUDY    43  40  89 NE10      29.80S
NEWPORT        LGT RAIN  43  41  93 NE9       29.80F
WALNUT RIDGE   CLOUDY    43  37  81 NE9       29.81S
BLYTHEVILLE    CLOUDY    45  40  82 E8        29.81F
$$

ARZ022-023-033-042-044-060300-
CENTRAL ARKANSAS

CITY           SKY/WX    TMP DP  RH WIND       PRES   REMARKS
LITTLE ROCK    DRZL/FOG  43  43 100 NE7       29.77S VSB 1
N LITTLE ROCK    N/A     42  41  96 NE7       29.78F
JACKSONVILLE   CLOUDY    43  43  99 NE7       29.76F FOG
SEARCY         LGT RAIN  43  43 100 N8        29.79F FOG
HOT SPRINGS    CLOUDY    45  44  97 E6        29.75S
RUSSELLVILLE   CLOUDY    44  42  93 CALM      29.74F FOG
CLINTON        CLOUDY    43  41  93 CALM      29.77F
$$

ARZ036-060300-
EAST ARKANSAS

CITY           SKY/WX    TMP DP  RH WIND       PRES   REMARKS
WEST MEMPHIS   CLOUDY    47  44  90 NE9       29.76F FOG
$$

ARZ050-053-066-070-073-060300-
SOUTHWEST ARKANSAS

CITY           SKY/WX    TMP DP  RH WIND       PRES   REMARKS
ARKADELPHIA    CLOUDY    45  44  97 VRB5      29.77S FOG
CAMDEN         CLOUDY    46  43  87 N6        29.76R FOG
TEXARKANA      CLOUDY    46  45  96 E5        29.73F
EL DORADO      RAIN      47  46  97 VRB7      29.74R FOG
DE QUEEN       CLOUDY    47  47 100 CALM      29.73F FOG
$$

ARZ056-057-069-060300-
SOUTHEAST ARKANSAS

CITY           SKY/WX    TMP DP  RH WIND       PRES   REMARKS
PINE BLUFF     CLOUDY    45  44  97 N7        29.75S FOG
STUTTGART      CLOUDY    45  39  81 N8        29.75F
MONTICELLO     CLOUDY    47  46  97 E8        29.71F FOG

$$






USA.gov is the U.S. government's official web portal to all federal, state and local government web resources and services.